[[{"header":{"parameterUnit":"m.s-1","parameterCategory":1,"la1":30.2991,"la2":30.254,"lo1":-89.0895,"lo2":-89.0444,"dy":0.0017,"dx":0.0017,"nx":28,"ny":28,"refTime":"2024-10-20T09:00:00:Z","depth":0,"parameterNumber":2,"parameterNumberName":"U-component_of_WINDS"},"data":[0,0,0,0,0,0,0,0,0,0,0,0,0,0,0,0,0,0,0,0,0,0,0,0,0,0,0,0,0,0,0,0,0,0,0,0,0,0,0,0,0,0,0,0,0,0,0,0,0,0,0,0,0,0,0,0,0,0,-2.93,-2.9301,0,-2.934,-2.934,-2.9341,-2.9268,-2.9266,-2.9264,-2.9261,-2.9302,-2.9306,-2.9309,0,0,0,0,0,0,0,0,0,0,0,0,0,-2.9163,-2.9166,-2.93,-2.9301,-2.9301,-2.934,-2.934,-2.9341,-2.9269,-2.9266,-2.9263,-2.926,-2.9301,-2.9305,-2.9309,0,0,0,0,0,0,0,0,0,0,0,0,0,-2.9214,-2.9167,-2.93,-2.927,-2.9268,-2.9339,-2.934,-2.9341,-2.9269,-2.9266,-2.9262,-2.9259,-2.93,-2.9305,-2.931,-2.9413,0,0,-2.9325,-2.9327,0,0,0,0,0,0,0,0,-2.9212,-2.9219,-2.9274,-2.9272,-2.927,-2.9295,-2.9307,-2.9365,-2.927,-2.9269,-2.9261,-2.9257,-2.9303,-2.9307,-2.9323,-2.9415,-2.9417,-2.9325,-2.9328,-2.9331,-2.9332,0,0,0,0,0,0,0,-2.9208,-2.9217,-2.9316,-2.9275,-2.9272,-2.9254,-2.9258,-2.9317,-2.9306,-2.9269,-2.9263,-2.9269,-2.9301,-2.9318,-2.9323,-2.9417,-2.9325,-2.933,-2.9333,-2.9335,-2.9597,-2.9601,0,0,0,0,0,0,-2.9208,-2.9215,-2.9314,-2.9317,-2.9231,-2.926,-2.9264,-2.9291,-2.9305,-2.9303,-2.9272,-2.9266,-2.9311,-2.9318,-2.9324,-2.9448,-2.9331,-2.9335,-2.9338,-2.9593,-2.9598,-2.9602,0,0,0,0,0,0,-2.9205,-2.9218,-2.9313,-2.9265,-2.9275,-2.9266,-2.9297,-2.9293,-2.931,-2.9307,-2.9305,-2.9292,-2.9309,-2.9317,-2.9392,-2.9448,-2.9338,-2.9342,-2.9588,-2.9594,-2.96,-2.9694,0,0,0,0,0,0,-2.9202,-2.9217,-2.9256,-2.9266,-2.9278,-2.938,-2.9301,-2.9297,-2.9319,-2.9311,-2.9325,-2.9324,-2.9307,-2.9385,-2.9397,-2.9453,-2.9346,-2.9583,-2.9591,-2.9598,-2.9686,-2.9703,-2.9717,0,0,0,0,0,-2.9197,-2.9281,-2.9259,-2.9271,-2.9327,-2.9383,-2.939,-2.9368,-2.9324,-2.9364,-2.9362,-2.9324,-2.9439,-2.9393,-2.9406,-2.9464,-2.958,-2.9589,-2.9597,-2.9679,-2.9699,-2.9716,0,0,0,0,0,0,-2.9279,-2.9282,-2.9257,-2.9347,-2.9365,-2.9371,-2.942,-2.939,-2.9422,-2.9413,-2.9384,-2.9388,-2.9468,-2.9473,-2.9421,-2.9565,-2.9502,-2.9514,-2.956,-2.9579,-2.9594,-2.9592,-2.935,0,0,0,0,0,-2.9307,-2.9353,-2.9353,-2.9432,-2.9442,-2.943,-2.9453,-2.9435,-2.9453,-2.946,-2.9464,-2.9483,-2.9523,-2.9551,-2.9588,-2.9685,-2.9688,-2.9732,-2.9747,-2.976,-2.9771,-2.9824,-2.9844,-2.9631,-2.9631,-2.9631,0,0,-2.9367,-2.9374,-2.9404,-2.9448,-2.9461,-2.9509,-2.9437,-2.949,-2.9526,-2.9468,-2.9539,-2.9542,-2.9562,-2.9649,-2.9687,-2.9655,-2.983,-2.9771,-2.9781,-2.9786,-2.9836,-2.9856,-2.9874,-2.9637,-2.9636,-2.9635,0,0,-2.95,-2.9509,-2.9577,-2.959,-2.961,-2.96,-2.9617,-2.9627,-2.9627,-2.9697,-2.9655,-2.9697,-2.9767,-2.9783,-2.98,-2.9939,-2.9906,-2.9951,-3.0033,-3.0085,-3.0102,-3.0116,-3.0168,-3.0186,-2.9962,-2.9963,-2.9963,0,-2.9572,-2.9642,-2.9615,-2.9672,-2.9693,-2.9643,-2.9711,-2.9726,-2.9756,-2.9772,-2.9736,-2.9823,-2.9832,-2.9923,-2.9957,-2.9972,-2.999,-2.9951,-3.0101,-3.0116,-3.0129,-3.0178,-3.0197,-2.9968,-2.9967,-2.9967,-2.9966,0,-2.973,-2.978,-2.9832,-2.9863,-2.9889,-2.9952,-2.9935,-2.9965,-2.9943,-2.9938,-3.0011,-3.002,-3.0059,-3.0078,-3.0058,-3.0166,-3.0146,-3.0106,-3.0042,-3.0156,-3.0201,-3.0219,-2.9976,-2.9974,-2.9972,-2.9971,0,0,-2.9918,-2.9933,-2.9953,-2.9966,-2.9983,-3.0021,-3.0081,-3.0119,-3.0146,-3.0168,-3.0219,-3.0279,-3.0242,-3.0262,-3.0242,-3.0288,-3.0399,-3.0242,-3.0242,-3.0273,-3.0521,-3.0553,-3.0574,-3.0376,-3.0379,-3.0382,-3.052,0,-3.0052,-3.0156,-3.0133,-3.0236,-3.0282,-3.0234,-3.0286,-3.0302,-3.0299,-3.0337,-3.0333,-3.0377,-3.0324,-3.0336,-3.0378,-3.0376,-3.0449,-3.0366,-3.0424,-3.0426,-3.0423,-3.0598,-3.0632,-3.0761,-3.0537,-3.054,-3.0542,0,-3.0222,-3.0252,-3.0359,-3.0369,-3.0387,-3.0435,-3.0468,-3.0505,-3.0522,-3.0516,-3.0538,-3.051,-3.057,-3.0504,-3.0586,-3.0531,-3.0552,-3.0555,-3.0559,-3.0566,-3.0493,-3.0611,-3.0802,-3.0823,-3.0569,-3.0567,-3.0565,0,-3.0352,-3.0417,-3.049,-3.0503,-3.0516,-3.0551,-3.0558,-3.0571,-3.0596,-3.0624,-3.064,-3.0674,-3.0694,-3.0722,-3.0704,-3.0657,-3.079,-3.0722,-3.0789,-3.0789,-3.0821,-3.082,-3.102,-3.0831,-3.0831,-3.0831,-3.083,0,-3.0505,-3.0573,-3.0548,-3.0594,-3.0669,-3.0641,-3.0716,-3.0717,-3.073,-3.0775,-3.0734,-3.0777,-3.0749,-3.079,-3.0776,-3.0848,-3.0856,-3.0854,-3.085,-3.0859,-3.086,-3.0875,-3.0867,-3.0836,-3.0835,-3.0834,-3.0833,0,-3.0663,-3.0649,-3.0726,-3.0732,-3.0735,-3.079,-3.0795,-3.0837,-3.0829,-3.0887,-3.0899,-3.0888,-3.0934,-3.0918,-3.0966,-3.0957,-3.1049,-3.1032,-3.1044,-3.104,-3.1108,-3.1103,-3.1328,-3.1357,-3.1147,-3.1149,-3.115,0,-3.0763,-3.0815,-3.0826,-3.0853,-3.0863,-3.0907,-3.0932,-3.0906,-3.0934,-3.0957,-3.0997,-3.1039,-3.1071,-3.1147,-3.1144,-3.1181,-3.1166,-3.1242,-3.1171,-3.1179,-3.117,-3.1168,-3.1174,-3.1257,-3.1259,-3.1261,-3.1263,0,-3.0944,-3.0934,-3.0971,-3.1006,-3.1036,-3.1062,-3.1085,-3.1109,-3.1085,-3.1117,-3.1164,-3.1189,-3.1239,-3.1282,-3.1315,-3.1322,-3.129,-3.1285,-3.1302,-3.1314,-3.132,-3.132,-3.1085,-3.128,-3.1279,-3.1277,-3.1276,-3.1276,-3.1077,-3.1121,-3.1136,-3.1179,-3.1193,-3.1215,-3.1255,-3.1253,-3.1291,-3.133,-3.1312,-3.1366,-3.1382,-3.1423,-3.1435,-3.1477,-3.1448,-3.1473,-3.148,-3.1487,-3.1497,-3.1311,-3.1483,-3.1482,-3.1482,-3.1481,-3.1481,0,-3.1258,-3.1265,-3.1304,-3.1337,-3.137,-3.1335,-3.1358,-3.1389,-3.1437,-3.1454,-3.1487,-3.1541,-3.1582,-3.1581,-3.1619,-3.1653,-3.1639,-3.1665,-3.1663,-3.1666,-3.152,-3.1502,-3.1675,-3.1675,-3.1675,-3.1675,-3.1675,-3.1675,-3.1355,-3.1428,-3.1421,-3.15,-3.1506,-3.1559,-3.1575,-3.1595,-3.1609,-3.1671,-3.1705,-3.1704,-3.1715,-3.1753,-3.179,-3.1788,-3.1805,-3.1837,-3.183,-3.1695,-3.1676,-3.1657,-3.164,-3.184,-3.184,-3.1973,-3.1974,-3.1975]},{"header":{"parameterUnit":"m.s-1","parameterCategory":1,"la1":30.2991,"la2":30.254,"lo1":-89.0895,"lo2":-89.0444,"dy":0.0017,"dx":0.0017,"nx":28,"ny":28,"refTime":"2024-10-20T09:00:00:Z","depth":0,"parameterNumber":3,"parameterNumberName":"V-component_of_WINDS"},"data":[0,0,0,0,0,0,0,0,0,0,0,0,0,0,0,0,0,0,0,0,0,0,0,0,0,0,0,0,0,0,0,0,0,0,0,0,0,0,0,0,0,0,0,0,0,0,0,0,0,0,0,0,0,0,0,0,0,0,-4.1786,-4.1786,0,-4.1792,-4.1792,-4.1792,-4.1725,-4.1723,-4.1721,-4.1719,-4.1724,-4.1726,-4.1728,0,0,0,0,0,0,0,0,0,0,0,0,0,-4.1715,-4.1716,-4.1786,-4.1786,-4.1786,-4.1792,-4.1792,-4.1792,-4.1725,-4.1723,-4.172,-4.1718,-4.1724,-4.1726,-4.1728,0,0,0,0,0,0,0,0,0,0,0,0,0,-4.1736,-4.1717,-4.1786,-4.1753,-4.175,-4.1792,-4.1792,-4.1792,-4.1725,-4.1723,-4.172,-4.1717,-4.1723,-4.1726,-4.1728,-4.1801,0,0,-4.1737,-4.1738,0,0,0,0,0,0,0,0,-4.1735,-4.1738,-4.1758,-4.1755,-4.1752,-4.1754,-4.1768,-4.1795,-4.1726,-4.1735,-4.1719,-4.1716,-4.1736,-4.1738,-4.1745,-4.1801,-4.1801,-4.1737,-4.1739,-4.174,-4.1741,0,0,0,0,0,0,0,-4.1733,-4.1738,-4.1788,-4.1758,-4.1755,-4.1738,-4.1738,-4.1773,-4.1751,-4.1734,-4.1729,-4.1731,-4.1734,-4.1743,-4.1745,-4.1801,-4.1737,-4.1739,-4.1741,-4.1742,-4.1915,-4.1918,0,0,0,0,0,0,-4.1736,-4.1737,-4.1788,-4.1788,-4.1736,-4.1741,-4.1741,-4.1757,-4.175,-4.1747,-4.1733,-4.1728,-4.1739,-4.1742,-4.1745,-4.1828,-4.174,-4.1742,-4.1744,-4.1913,-4.1916,-4.1919,0,0,0,0,0,0,-4.1735,-4.1741,-4.1787,-4.1761,-4.1766,-4.1745,-4.1763,-4.1758,-4.1766,-4.175,-4.1745,-4.1746,-4.1737,-4.1741,-4.1787,-4.1828,-4.1744,-4.1746,-4.1909,-4.1914,-4.1918,-4.1997,0,0,0,0,0,0,-4.1733,-4.1741,-4.1769,-4.1762,-4.1767,-4.1831,-4.1766,-4.176,-4.1771,-4.1764,-4.176,-4.1757,-4.1735,-4.1783,-4.179,-4.183,-4.1748,-4.1905,-4.1911,-4.1916,-4.1991,-4.2003,-4.2014,0,0,0,0,0,-4.1731,-4.1791,-4.1771,-4.1777,-4.1802,-4.1833,-4.1836,-4.181,-4.1775,-4.1802,-4.1791,-4.1757,-4.1822,-4.1789,-4.1795,-4.1837,-4.1903,-4.1909,-4.1916,-4.1985,-4.2001,-4.2014,0,0,0,0,0,0,-4.1803,-4.179,-4.1767,-4.1827,-4.1832,-4.1822,-4.1855,-4.1827,-4.1842,-4.1835,-4.1801,-4.1801,-4.1853,-4.1849,-4.1812,-4.1906,-4.1856,-4.1864,-4.1906,-4.1921,-4.1933,-4.1933,-4.1751,0,0,0,0,0,-4.1826,-4.1853,-4.184,-4.1894,-4.1897,-4.1876,-4.1889,-4.1868,-4.1872,-4.1873,-4.1866,-4.187,-4.1891,-4.1906,-4.1925,-4.199,-4.1987,-4.2021,-4.2033,-4.2043,-4.2051,-4.2084,-4.2099,-4.1941,-4.1941,-4.1941,0,0,-4.1874,-4.187,-4.1889,-4.1908,-4.1909,-4.1938,-4.1878,-4.1911,-4.1931,-4.1878,-4.1921,-4.1916,-4.1919,-4.1975,-4.1999,-4.1973,-4.2094,-4.2052,-4.206,-4.2062,-4.2093,-4.2108,-4.2121,-4.1946,-4.1945,-4.1944,0,0,-4.1975,-4.1975,-4.202,-4.2022,-4.2024,-4.201,-4.2021,-4.2015,-4.2009,-4.2052,-4.2013,-4.2036,-4.2074,-4.2077,-4.2084,-4.2185,-4.2154,-4.2192,-4.2255,-4.2288,-4.23,-4.2311,-4.2347,-4.236,-4.22,-4.22,-4.22,0,-4.2034,-4.2075,-4.2046,-4.2081,-4.209,-4.2044,-4.2088,-4.2092,-4.21,-4.2108,-4.2079,-4.2125,-4.2123,-4.2179,-4.2204,-4.2211,-4.2221,-4.2193,-4.2301,-4.2311,-4.2321,-4.2355,-4.2369,-4.2205,-4.2204,-4.2204,-4.2203,0,-4.2147,-4.2176,-4.2212,-4.2221,-4.2235,-4.2274,-4.2251,-4.2268,-4.2246,-4.2234,-4.2278,-4.2274,-4.2291,-4.2303,-4.2282,-4.2356,-4.234,-4.2307,-4.2256,-4.2341,-4.2373,-4.2385,-4.2211,-4.2209,-4.2208,-4.2207,0,0,-4.2294,-4.2287,-4.23,-4.2304,-4.2303,-4.2325,-4.2362,-4.2378,-4.2393,-4.2401,-4.2431,-4.2463,-4.2432,-4.244,-4.2419,-4.2448,-4.2528,-4.2411,-4.241,-4.2432,-4.2608,-4.2633,-4.2649,-4.2507,-4.2509,-4.2511,-4.2608,0,-4.2392,-4.2456,-4.2431,-4.2496,-4.2522,-4.2478,-4.251,-4.2513,-4.2503,-4.2523,-4.2511,-4.2535,-4.2493,-4.2497,-4.2524,-4.2513,-4.2563,-4.2505,-4.2534,-4.2536,-4.2535,-4.2665,-4.2692,-4.2783,-4.262,-4.2622,-4.2624,0,-4.2516,-4.2528,-4.2596,-4.259,-4.26,-4.263,-4.2642,-4.2663,-4.2664,-4.2655,-4.2663,-4.2635,-4.2671,-4.262,-4.2668,-4.263,-4.264,-4.2636,-4.2639,-4.2641,-4.2585,-4.267,-4.2812,-4.2826,-4.2643,-4.2641,-4.264,0,-4.2616,-4.265,-4.2695,-4.2699,-4.2693,-4.2715,-4.2713,-4.2712,-4.2723,-4.2734,-4.2741,-4.2756,-4.2765,-4.2777,-4.2754,-4.2719,-4.2805,-4.2753,-4.2798,-4.2799,-4.2818,-4.2817,-4.2963,-4.2825,-4.2825,-4.2825,-4.2824,0,-4.2728,-4.2772,-4.2739,-4.2767,-4.2814,-4.2784,-4.2831,-4.2825,-4.2824,-4.2849,-4.2812,-4.2836,-4.2804,-4.2825,-4.2807,-4.285,-4.2854,-4.2847,-4.2841,-4.285,-4.2851,-4.2856,-4.2849,-4.2828,-4.2827,-4.2827,-4.2826,0,-4.2849,-4.2829,-4.2875,-4.2865,-4.2864,-4.2899,-4.289,-4.2915,-4.2902,-4.2934,-4.294,-4.292,-4.2943,-4.292,-4.2942,-4.293,-4.2987,-4.2972,-4.2986,-4.2982,-4.3029,-4.3025,-4.3183,-4.3202,-4.3052,-4.3054,-4.3055,0,-4.2922,-4.2954,-4.2948,-4.2962,-4.2963,-4.2986,-4.2997,-4.2969,-4.2982,-4.2986,-4.301,-4.303,-4.3044,-4.3083,-4.307,-4.3086,-4.3072,-4.3126,-4.3074,-4.3081,-4.3072,-4.3071,-4.3074,-4.3137,-4.3139,-4.314,-4.3141,0,-4.3054,-4.3042,-4.306,-4.3074,-4.3089,-4.3099,-4.3106,-4.3119,-4.309,-4.3106,-4.3129,-4.3141,-4.3162,-4.3182,-4.3194,-4.3192,-4.3162,-4.3158,-4.3169,-4.3178,-4.3185,-4.3182,-4.3015,-4.3154,-4.3153,-4.3152,-4.3151,-4.3151,-4.3152,-4.3179,-4.3178,-4.3199,-4.3201,-4.3208,-4.3231,-4.3221,-4.3239,-4.3255,-4.3237,-4.3265,-4.3265,-4.3278,-4.328,-4.3301,-4.3278,-4.3294,-4.3298,-4.3303,-4.331,-4.3182,-4.3303,-4.3303,-4.3302,-4.3302,-4.3301,0,-4.3282,-4.3279,-4.3299,-4.3309,-4.3326,-4.3296,-4.3302,-4.3317,-4.3342,-4.3345,-4.336,-4.3386,-4.3405,-4.3393,-4.3409,-4.3429,-4.3415,-4.3434,-4.3432,-4.3432,-4.3329,-4.3318,-4.3444,-4.3444,-4.3444,-4.3444,-4.3444,-4.3444,-4.3351,-4.3394,-4.3382,-4.3425,-4.3422,-4.3449,-4.3455,-4.3461,-4.3463,-4.3494,-4.351,-4.3502,-4.3499,-4.3514,-4.353,-4.3526,-4.3534,-4.3557,-4.3549,-4.3453,-4.3439,-4.3426,-4.3415,-4.3559,-4.356,-4.3649,-4.365,-4.3651]}]]